Location: Ripley
(48.3812°N, 115.4473°W)
Time: 23:34:30
(UTC+00:00)

Envisat - Visible Passes

Search period start: 28 January 2022 00:00
Search period end: 07 February 2022 00:00
Orbit: 764 x 766 km, 98.2° (Epoch: 28 January)

Date Brightness Start Highest point End Pass type
(mag) Time Alt. Az. Time Alt. Az. Time Alt. Az.
28 Jan 5.9 01:03:26 10° SW 01:06:40 17° W 01:09:56 10° NW visible
28 Jan 5.4 11:28:02 10° NE 11:31:38 19° E 11:35:12 10° SE visible
28 Jan 2.9 13:06:03 10° N 13:11:06 64° WNW 13:16:07 10° SSW visible
29 Jan 3.3 12:29:10 10° NNE 12:34:14 64° ESE 12:39:16 10° S visible
29 Jan 4.2 14:09:02 10° NNW 14:12:48 21° WNW 14:16:34 10° WSW visible
30 Jan 4.7 11:52:39 10° NNE 11:57:09 31° E 12:01:38 10° SSE visible
30 Jan 3.4 13:31:32 10° N 13:36:16 40° WNW 13:40:58 10° SW visible
31 Jan 5.7 11:16:56 10° NE 11:19:53 15° E 11:22:49 10° ESE visible
31 Jan 2.8 12:54:24 10° NNE 12:59:31 80° WNW 13:04:36 10° SSW visible
31 Jan 4.6 14:35:12 10° NNW 14:37:44 14° NW 14:40:17 10° W visible
01 Feb 3.7 12:17:37 10° NNE 12:22:36 51° E 12:27:31 10° S visible
01 Feb 3.9 13:57:11 10° N 14:01:20 26° WNW 14:05:27 10° WSW visible
02 Feb 6.2 01:18:25 10° WSW 01:20:33 13° W 01:22:42 10° WNW visible
02 Feb 5.0 11:41:17 10° NE 11:45:27 25° E 11:49:37 10° SSE visible
02 Feb 3.1 13:19:49 10° N 13:24:43 49° WNW 13:29:36 10° SW visible
03 Feb 5.9 11:06:09 10° ENE 11:08:07 12° E 11:10:04 10° ESE visible
03 Feb 3.0 12:42:48 10° NNE 12:47:56 84° ESE 12:53:01 10° SSW visible
03 Feb 4.4 14:23:08 10° NNW 14:26:18 17° WNW 14:29:28 10° W visible
04 Feb 4.2 12:06:08 10° NNE 12:10:56 41° E 12:15:43 10° SSE visible
04 Feb 3.7 13:45:24 10° N 13:49:50 31° WNW 13:54:15 10° SW visible
05 Feb 5.3 11:30:00 10° NE 11:33:44 20° E 11:37:28 10° SE visible
05 Feb 2.9 13:08:08 10° N 13:13:10 61° WNW 13:18:09 10° SSW visible
06 Feb 3.3 12:31:14 10° NNE 12:36:19 68° ESE 12:41:22 10° S visible
06 Feb 4.2 14:11:11 10° NNW 14:14:51 20° WNW 14:18:30 10° WSW visible
